Weather History for KHUT - January, 2014

Change the Weather History Date:

Tuesday, January 28, 2014

  Actual Average Record
Temperature  
Mean Temperature 18 °F -  
Max Temperature 30 °F 40 °F 73 °F (2013)
Min Temperature 6 °F 19 °F -7 °F (1997)
Degree Days  
Heating Degree Days 47    
Moisture  
Dew Point 1 °F    
Average Humidity 50    
Maximum Humidity 67    
Minimum Humidity 26    
Precipitation  
Precipitation 0.00 in - - ()
Sea Level Pressure  
Sea Level Pressure 30.42 in    
Wind  
Wind Speed 6 mph (WSW)    
Max Wind Speed 21 mph    
Max Gust Speed 21 mph    
Visibility 10 miles    
Events      
Averages and records for this station are not official NWS values.
T = Trace of Precipitation, MM = Missing Value Source: NWS Daily Summary

Daily Weather History Graph

Daily Weather History Graph

Search for Another Location

Airport or City:

Trip Planner

Search our weather history database for the weather conditions in past years. The results will help you decide how hot, cold, wet, or windy it might be!

Date:

Astronomy

Jan. 28, 2014 Rise Set
Actual Time 7:39 AM CST 5:50 PM CST
Civil Twilight 7:11 AM CST 6:18 PM CST
Nautical Twilight 6:39 AM CST 6:49 PM CST
Astronomical Twilight 6:08 AM CST 7:20 PM CST
Moon 5:21 AM CST (1/28) 3:42 PM CST (1/28)
Length of Visible Light 11h 06m
Length of Day
10h 10m
Waning Crescent, 7% of the Moon is Illuminated
Jan 28
Waning Crescent
Jan 30
New
Feb 6
First Quarter
Feb 14
Full
Feb 22
Last Quarter

Hourly Weather History & Observations

Time (CST) Temp. Windchill Dew Point Humidity Pressure Visibility Wind Dir Wind Speed Gust Speed Precip Events Conditions
12:52 AM 14.0 °F 8.2 °F -5.1 °F 43% 30.50 in 10.0 mi East 3.5 mph - N/A   Partly Cloudy
1:52 AM 10.9 °F - -2.9 °F 54% 30.50 in 10.0 mi Calm Calm - N/A   Mostly Cloudy
2:52 AM 12.0 °F 5.9 °F -4.0 °F 49% 30.48 in 10.0 mi SE 3.5 mph - N/A   Overcast
3:52 AM 12.9 °F 5.2 °F -2.0 °F 51% 30.48 in 10.0 mi SSW 4.6 mph - N/A   Overcast
4:52 AM 10.0 °F 3.6 °F -2.0 °F 58% 30.47 in 10.0 mi South 3.5 mph - N/A   Mostly Cloudy
5:52 AM 6.1 °F -2.8 °F -4.0 °F 63% 30.50 in 10.0 mi SW 4.6 mph - N/A   Mostly Cloudy
6:52 AM 7.0 °F -1.7 °F -2.9 °F 64% 30.49 in 10.0 mi South 4.6 mph - N/A   Scattered Clouds
7:52 AM 10.9 °F -0.8 °F -2.0 °F 56% 30.50 in 10.0 mi SW 8.1 mph - N/A   Mostly Cloudy
8:52 AM 16.0 °F 4.4 °F 3.0 °F 57% 30.49 in 10.0 mi SW 9.2 mph - N/A   Overcast
9:52 AM 19.0 °F 6.8 °F 9.0 °F 65% 30.48 in 10.0 mi WSW 11.5 mph - N/A   Scattered Clouds
10:52 AM 24.1 °F 11.5 °F 9.0 °F 53% 30.46 in 10.0 mi West 15.0 mph - N/A   Mostly Cloudy
11:52 AM 28.0 °F 14.6 °F 7.0 °F 41% 30.45 in 10.0 mi NW 20.7 mph - N/A   Scattered Clouds
12:52 PM 27.0 °F 16.7 °F 3.9 °F 37% 30.42 in 10.0 mi NW 11.5 mph 20.7 mph N/A   Mostly Cloudy
1:52 PM 27.0 °F 15.6 °F 3.9 °F 37% 30.40 in 10.0 mi NW 13.8 mph - N/A   Overcast
2:52 PM 30.0 °F 18.7 °F 1.9 °F 30% 30.36 in 10.0 mi NNW 16.1 mph 20.7 mph N/A   Overcast
3:52 PM 28.9 °F 20.4 °F -2.0 °F 26% 30.34 in 10.0 mi WNW 9.2 mph - N/A   Clear
4:52 PM 28.0 °F 18.6 °F -0.9 °F 29% 30.35 in 10.0 mi NW 10.4 mph - N/A   Clear
5:52 PM 24.1 °F 14.4 °F -0.9 °F 34% 30.36 in 10.0 mi NW 9.2 mph - N/A   Clear
6:52 PM 17.1 °F - -0.9 °F 45% 30.37 in 10.0 mi Calm Calm - N/A   Clear
7:52 PM 12.0 °F - -0.0 °F 59% 30.36 in 10.0 mi Calm Calm - N/A   Clear
8:52 PM 10.0 °F - 1.0 °F 67% 30.36 in 10.0 mi Calm Calm - N/A   Clear
9:52 PM 12.0 °F - 1.0 °F 61% 30.36 in 10.0 mi Calm Calm - N/A   Clear
10:52 PM 14.0 °F 6.5 °F 1.9 °F 59% 30.34 in 10.0 mi SSW 4.6 mph - N/A   Clear
11:52 PM 10.9 °F - 1.9 °F 67% 30.32 in 10.0 mi Calm Calm - N/A   Clear